Tracking 20369 objects as of 17-Feb-2020
HD Live streaming from Space Station
objects crossing your sky now

NSAT 110

Track NSAT 110 now!
NSAT 110 is classified as:


NORAD ID: 26559
Int'l Code: 2000-060A
Perigee: 36,078.0 km
Apogee: 36,125.5 km
Inclination: 1.0 °
Period: 1,451.9 minutes
Semi major axis: 42472 km
RCS: 12.5892 m2 (large)
Launch date: October 6, 2000
Source: Japan (JPN)
Launch site: FRENCH GUIANA (FRGUI)

24 Ku-band; voice and video communications to Japan.
aabbcc
Your satellite tracking list
Your tracking list is empty




NASA's NSSDC Master Catalog

Two Line Element Set (TLE):
1 26559U 00060A   20048.37659278 -.00000263 +00000-0 +00000-0 0  9996
2 26559 000.9678 095.1553 0005592 296.8675 214.1331 00.99182903070891
Source of the keplerian elements: AFSPC